,,PA_Meas_PMT16A,,PR_Meas_QMR101_102,,RH_Meas_QMH101,,SR_Meas_QMS101,,TA_Meas_QMH101,,GenWind,,GenWind,
time,status,PA,status,PR,status,RH,status,SR,status,TA,status,DirAvg,status,SpdAvg,
2017-01-13, 18:28:04,VALID,917.551,VALID,0,VALID,83.8881,VALID,197.477,VALID,23.6584,VALID,306,VALID,0.673437,
2017-01-13, 18:29:04,VALID,917.505,VALID,0,VALID,85.611,VALID,286.653,VALID,23.3674,VALID,34,VALID,2.05781,
2017-01-13, 18:30:04,VALID,917.558,VALID,0,VALID,88.3401,VALID,258.718,VALID,23.0711,VALID,350,VALID,1.02383,
2017-01-13, 18:31:04,VALID,917.532,VALID,0,VALID,92.1976,VALID,193.502,VALID,22.8759,VALID,23,VALID,0.913672,
2017-01-13, 18:32:04,VALID,917.539,VALID,0,VALID,94.6142,VALID,199.733,VALID,22.7801,VALID,12,VALID,1.39805,
2017-01-13, 18:33:04,VALID,917.493,VALID,0,VALID,102.299,VALID,286.653,VALID,22.6808,VALID,15,VALID,0.9625,
2017-01-13, 18:34:04,VALID,917.502,VALID,0,INVALID,110.395,VALID,342.952,VALID,22.5655,VALID,34,VALID,1.00469,
2017-01-13, 18:35:04,VALID,917.482,VALID,0,INVALID,109.8,VALID,342.952,VALID,22.4679,VALID,27,VALID,3.15781,
2017-01-13, 18:36:04,VALID,917.547,VALID,0,INVALID,115.312,VALID,317.489,VALID,22.4679,VALID,1,VALID,1.10938,
2017-01-13, 18:37:04,VALID,917.464,VALID,0,INVALID,109.129,VALID,353.589,VALID,22.4484,VALID,45,VALID,0.512109,
2017-01-13, 18:38:04,VALID,917.527,VALID,0,INVALID,119.192,VALID,386.358,VALID,22.4077,VALID,15,VALID,1.82773,
2017-01-13, 18:39:04,VALID,917.467,VALID,0,VALID,104,VALID,343.597,VALID,22.4484,VALID,6,VALID,1.96406,
2017-01-13, 18:40:04,VALID,917.492,VALID,0,INVALID,109.747,VALID,387.54,VALID,22.3881,VALID,22,VALID,2.58047,
2017-01-13, 18:41:04,VALID,917.522,VALID,0,INVALID,114.336,VALID,448.137,VALID,22.4094,VALID,23,VALID,1.69961,
2017-01-13, 18:42:04,VALID,917.512,VALID,0,INVALID,112.766,VALID,484.882,VALID,22.4272,VALID,309,VALID,0.235938,
2017-01-13, 18:43:04,VALID,917.502,VALID,0,INVALID,117.218,VALID,384.424,VALID,22.4874,VALID,25,VALID,2.3168,
2017-01-13, 18:44:04,VALID,917.531,VALID,0,VALID,104,VALID,300.405,VALID,22.585,VALID,12,VALID,1.33516,
2017-01-13, 18:45:04,VALID,917.476,VALID,0,VALID,100.789,VALID,244.429,VALID,22.5052,VALID,34,VALID,1.34414,
2017-01-13, 18:46:04,VALID,917.566,VALID,0,VALID,104,VALID,206.502,VALID,22.3703,VALID,328,VALID,1.25664,
2017-01-13, 18:47:04,VALID,917.495,VALID,0,INVALID,112.514,VALID,217.139,VALID,22.0972,VALID,39,VALID,1.25781,
2017-01-13, 18:48:04,VALID,917.472,VALID,0,INVALID,118.415,VALID,291.595,VALID,21.9216,VALID,35,VALID,2.025,
2017-01-13, 18:49:04,VALID,917.536,VALID,0,INVALID,123.438,VALID,579.967,VALID,21.9021,VALID,3,VALID,0,
2017-01-13, 18:50:04,VALID,917.564,VALID,0,INVALID,123.545,VALID,639.919,VALID,22.0582,VALID,27,VALID,0.161328,
2017-01-13, 18:51:04,VALID,917.499,VALID,0,INVALID,123.881,VALID,514.643,VALID,22.3508,VALID,12,VALID,0.833203,
2017-01-13, 18:52:04,VALID,917.484,VALID,0,VALID,103.739,VALID,464.898,VALID,22.585,VALID,335,VALID,1.23828,
2017-01-13, 18:53:04,VALID,917.516,VALID,0,VALID,104,VALID,386.143,VALID,22.6435,VALID,354,VALID,0.685156,
2017-01-13, 18:54:04,VALID,917.516,VALID,0,VALID,101.018,VALID,290.199,VALID,22.7198,VALID,319,VALID,0.264453,
2017-01-13, 18:55:04,VALID,917.501,VALID,0,VALID,100.599,VALID,340.911,VALID,22.7801,VALID,17,VALID,0,
2017-01-13, 18:56:04,VALID,917.511,VALID,0,VALID,95.4071,VALID,373.68,VALID,22.7411,VALID,17,VALID,0.487109,
2017-01-13, 18:57:04,VALID,917.487,VALID,0,VALID,102.36,VALID,330.811,VALID,22.7021,VALID,20,VALID,0.437891,
2017-01-13, 18:58:04,VALID,917.467,VALID,0,VALID,95.3079,VALID,438.467,VALID,22.6435,VALID,58,VALID,0.0304688,
2017-01-13, 18:59:04,VALID,917.443,VALID,0,VALID,103.046,VALID,398.714,VALID,22.5459,VALID,39,VALID,0.631641,
2017-01-13, 19:00:04,VALID,917.486,VALID,0,VALID,92.6626,VALID,344.134,VALID,22.4289,VALID,36,VALID,0.694922,
2017-01-13, 19:01:04,VALID,917.51,VALID,0,INVALID,114.534,VALID,312.224,VALID,22.3916,VALID,360,VALID,1.27344,
2017-01-13, 19:02:04,VALID,917.447,VALID,0,VALID,104,VALID,205.535,VALID,22.3916,VALID,23,VALID,2.59297,
2017-01-13, 19:03:04,VALID,917.444,VALID,0,VALID,96.0245,VALID,208.758,VALID,22.2745,VALID,11,VALID,1.52969,
2017-01-13, 19:04:04,VALID,917.448,VALID,0,INVALID,115.64,VALID,218.535,VALID,22.0191,VALID,14,VALID,1.73984,
2017-01-13, 19:05:04,VALID,917.47,VALID,0,INVALID,122.447,VALID,177.278,VALID,22.0191,VALID,337,VALID,0.197266,
2017-01-13, 19:06:04,VALID,917.404,VALID,0,INVALID,118.033,VALID,162.988,VALID,22.0794,VALID,28,VALID,2.04727,
2017-01-13, 19:07:04,VALID,917.462,VALID,0,INVALID,119.581,VALID,187.162,VALID,21.9818,VALID,17,VALID,1.33906,
2017-01-13, 19:08:04,VALID,917.444,VALID,0,INVALID,122.371,VALID,178.46,VALID,21.9606,VALID,349,VALID,1.06328,
2017-01-13, 19:09:04,VALID,917.415,VALID,0,INVALID,120.061,VALID,180.609,VALID,21.8842,VALID,32,VALID,1.8918,
2017-01-13, 19:10:04,VALID,917.424,VALID,0,INVALID,123.042,VALID,214.023,VALID,21.7867,VALID,23,VALID,0.538281,
2017-01-13, 19:11:04,VALID,917.405,VALID,0,INVALID,122.783,VALID,239.916,VALID,21.7477,VALID,355,VALID,0.0148437,
2017-01-13, 19:12:04,VALID,917.372,VALID,0,INVALID,123.057,VALID,312.009,VALID,21.6696,VALID,19,VALID,1.14063,
2017-01-13, 19:13:04,VALID,917.381,VALID,0,INVALID,124.094,VALID,445.451,VALID,21.5721,VALID,358,VALID,0.426953,
2017-01-13, 19:14:04,VALID,917.351,VALID,0,INVALID,123.911,VALID,357.027,VALID,21.455,VALID,6,VALID,0.028125,
2017-01-13, 19:15:04,VALID,917.364,VALID,0,INVALID,124.879,VALID,248.511,VALID,21.5526,VALID,350,VALID,0,
2017-01-13, 19:16:04,VALID,917.331,VALID,0,INVALID,123.118,VALID,273.653,VALID,21.6501,VALID,22,VALID,1.72578,
2017-01-13, 19:17:04,VALID,917.318,VALID,0,INVALID,121.822,VALID,326.621,VALID,21.6891,VALID,344,VALID,1.94414,
2017-01-13, 19:18:04,VALID,917.319,VALID,0,INVALID,123.255,VALID,396.243,VALID,21.5526,VALID,13,VALID,2.55625,
2017-01-13, 19:19:04,VALID,917.295,VALID,0,INVALID,124.033,VALID,377.011,VALID,21.6501,VALID,346,VALID,1.17188,
2017-01-13, 19:20:04,VALID,917.316,VALID,0,INVALID,124.307,VALID,322.753,VALID,21.746,VALID,357,VALID,0.883203,
2017-01-13, 19:21:04,VALID,917.281,VALID,0,INVALID,120.435,VALID,285.364,VALID,21.7672,VALID,8,VALID,1.28359,
2017-01-13, 19:22:04,VALID,917.344,VALID,0,INVALID,123.614,VALID,293.744,VALID,21.7477,VALID,15,VALID,0.542969,
2017-01-13, 19:23:04,VALID,917.287,VALID,0,INVALID,122.516,VALID,328.018,VALID,21.7867,VALID,27,VALID,0.910547,
2017-01-13, 19:24:04,VALID,917.289,VALID,0,INVALID,123.804,VALID,310.075,VALID,21.9021,VALID,352,VALID,0.698828,
2017-01-13, 19:25:04,VALID,917.249,VALID,0,INVALID,118.834,VALID,290.413,VALID,21.9428,VALID,14,VALID,0.971875,
2017-01-13, 19:26:04,VALID,917.206,VALID,0,INVALID,117.126,VALID,269.248,VALID,21.9623,VALID,26,VALID,1.21602,
2017-01-13, 19:27:04,VALID,917.214,VALID,0,INVALID,115.533,VALID,283.645,VALID,21.9996,VALID,15,VALID,1.30938,
2017-01-13, 19:28:04,VALID,917.14,VALID,0,VALID,97.3129,VALID,360.465,VALID,21.9818,VALID,14,VALID,2.08516,
2017-01-13, 19:29:04,VALID,917.162,VALID,0,INVALID,112.072,VALID,444.162,VALID,21.8452,VALID,29,VALID,1.81406,
2017-01-13, 19:30:04,VALID,917.168,VALID,0,INVALID,120.168,VALID,586.951,VALID,21.8842,VALID,29,VALID,0.392969,
2017-01-13, 19:31:04,VALID,917.153,VALID,0,INVALID,109.213,VALID,700.301,VALID,22.1201,VALID,352,VALID,0,
2017-01-13, 19:32:04,VALID,917.119,VALID,0,VALID,93.5469,VALID,643.143,VALID,22.3525,VALID,26,VALID,0.167578,
2017-01-13, 19:33:04,VALID,917.105,VALID,0,VALID,98.0448,VALID,815.478,VALID,22.5672,VALID,36,VALID,0,
2017-01-13, 19:34:04,VALID,917.078,VALID,0,VALID,89.5142,VALID,671.83,VALID,22.8777,VALID,3,VALID,0,
2017-01-13, 19:35:04,VALID,917.043,VALID,0,VALID,83.9567,VALID,598.877,VALID,23.229,VALID,20,VALID,0.00273437,
2017-01-13, 19:36:04,VALID,916.991,VALID,0,VALID,79.6952,VALID,605.968,VALID,23.4454,VALID,348,VALID,0.400391,
2017-01-13, 19:37:04,VALID,917.005,VALID,0,VALID,79.497,VALID,1085.91,VALID,23.4454,VALID,353,VALID,0.0078125,
2017-01-13, 19:38:04,VALID,916.987,VALID,0,VALID,78.6279,VALID,979.004,VALID,23.5626,VALID,354,VALID,0,
2017-01-13, 19:39:04,VALID,916.962,VALID,0,VALID,77.0575,VALID,630.894,VALID,23.7382,VALID,315,VALID,0.117969,
2017-01-13, 19:40:04,VALID,916.908,VALID,0,VALID,75.4642,VALID,662.267,VALID,23.9512,VALID,349,VALID,0,
2017-01-13, 19:41:04,VALID,916.865,VALID,0,VALID,74.5341,VALID,752.303,VALID,24.0506,VALID,227,VALID,0,
2017-01-13, 19:42:04,VALID,916.886,VALID,0,VALID,78.3306,VALID,852.008,VALID,24.1482,VALID,345,VALID,0,
2017-01-13, 19:43:04,VALID,916.768,VALID,0,VALID,71.7973,VALID,679.78,VALID,24.0896,VALID,350,VALID,1.48906,
2017-01-13, 19:44:04,VALID,916.74,VALID,0,VALID,75.1516,VALID,990.715,VALID,23.8944,VALID,14,VALID,0.0589844,
2017-01-13, 19:45:04,VALID,916.768,VALID,0,VALID,77.6445,VALID,597.158,VALID,24.0311,VALID,1,VALID,0,
2017-01-13, 19:46:04,VALID,916.727,VALID,0,VALID,78.5288,VALID,693.747,VALID,24.0878,VALID,5,VALID,1.45156,
2017-01-13, 19:47:04,VALID,916.72,VALID,0,VALID,79.8705,VALID,678.813,VALID,23.9335,VALID,14,VALID,0.223438,
2017-01-13, 19:48:04,VALID,916.717,VALID,0,VALID,81.784,VALID,860.818,VALID,23.953,VALID,31,VALID,0.216797,
2017-01-13, 19:49:04,VALID,916.698,VALID,0,VALID,77.8275,VALID,800.329,VALID,24.1464,VALID,31,VALID,1.925,
2017-01-13, 19:50:04,VALID,916.692,VALID,0,VALID,78.4068,VALID,645.184,VALID,24.363,VALID,28,VALID,1.34687,
2017-01-13, 19:51:04,VALID,916.722,VALID,0,VALID,77.6064,VALID,519.585,VALID,24.4392,VALID,335,VALID,0,
2017-01-13, 19:52:04,VALID,916.696,VALID,0,VALID,74.7933,VALID,897.456,VALID,24.4392,VALID,310,VALID,0.242969,
2017-01-13, 19:53:04,VALID,916.7,VALID,0,VALID,76.2265,VALID,557.082,VALID,24.4392,VALID,333,VALID,0,
2017-01-13, 19:54:04,VALID,916.691,VALID,0,VALID,72.3691,VALID,603.604,VALID,24.3611,VALID,203,VALID,0.0121094,
2017-01-13, 19:55:04,VALID,916.692,VALID,0,VALID,71.5991,VALID,718.889,VALID,24.3611,VALID,257,VALID,0.106641,
2017-01-13, 19:56:04,VALID,916.696,VALID,0,VALID,71.8888,VALID,699.979,VALID,24.2635,VALID,307,VALID,0,
2017-01-13, 19:57:04,VALID,916.614,VALID,0,VALID,72.087,VALID,737.369,VALID,24.0878,VALID,12,VALID,0.849219,
2017-01-13, 19:58:04,VALID,916.591,VALID,0,VALID,71.5763,VALID,678.383,VALID,24.0683,VALID,256,VALID,0,
2017-01-13, 19:59:04,VALID,916.591,VALID,0,VALID,73.4059,VALID,682.466,VALID,24.283,VALID,360,VALID,1.80664,
2017-01-13, 20:00:04,VALID,916.543,VALID,0,VALID,76.2418,VALID,621.01,VALID,24.283,VALID,34,VALID,0.163281,
2017-01-13, 20:01:04,VALID,916.574,VALID,0,VALID,73.1238,VALID,726.732,VALID,24.4978,VALID,66,VALID,0.282422,
2017-01-13, 20:02:04,VALID,916.538,VALID,0,VALID,67.8941,VALID,612.522,VALID,24.6149,VALID,253,VALID,1.58711,
2017-01-13, 20:03:04,VALID,916.516,VALID,0,VALID,69.2816,VALID,551.066,VALID,24.4783,VALID,25,VALID,0.667578,
2017-01-13, 20:04:04,VALID,916.434,VALID,0,VALID,68.4964,VALID,585.447,VALID,24.4783,VALID,17,VALID,1.08477,
2017-01-13, 20:05:04,VALID,916.471,VALID,0,VALID,73.3601,VALID,612.2,VALID,24.3416,VALID,14,VALID,1.45898,
2017-01-13, 20:06:04,VALID,916.508,VALID,0,VALID,69.8991,VALID,846.851,VALID,24.4374,VALID,332,VALID,0,
2017-01-13, 20:07:04,VALID,916.46,VALID,0,VALID,71.9727,VALID,928.077,VALID,24.7302,VALID,78,VALID,0.707812,
2017-01-13, 20:08:04,VALID,916.471,VALID,0,VALID,67.8179,VALID,892.406,VALID,25.1226,VALID,348,VALID,0,
2017-01-13, 20:09:04,VALID,916.398,VALID,0,VALID,61.8411,VALID,885.852,VALID,25.2183,VALID,28,VALID,2.19531,
2017-01-13, 20:10:04,VALID,916.364,VALID,0,VALID,57.9837,VALID,825.793,VALID,25.1598,VALID,247,VALID,1.57266,
2017-01-13, 20:11:04,VALID,916.355,VALID,0,VALID,64.2502,VALID,827.834,VALID,24.9645,VALID,281,VALID,0,
2017-01-13, 20:12:04,VALID,916.392,VALID,0,VALID,61.0864,VALID,841.479,VALID,25.0426,VALID,324,VALID,0.958594,
2017-01-13, 20:13:04,VALID,916.356,VALID,0,VALID,59.4626,VALID,841.049,VALID,24.9859,VALID,250,VALID,0.971094,
2017-01-13, 20:14:04,VALID,916.283,VALID,0,VALID,61.7954,VALID,714.699,VALID,24.9078,VALID,26,VALID,0.76875,
2017-01-13, 20:15:04,VALID,916.268,VALID,0,VALID,64.1739,VALID,832.239,VALID,25.1031,VALID,30,VALID,0.896094,
2017-01-13, 20:16:04,VALID,916.238,VALID,0,VALID,59.4169,VALID,842.231,VALID,25.4351,VALID,250,VALID,0.392188,
2017-01-13, 20:17:04,VALID,916.197,VALID,0,VALID,60.9492,VALID,843.735,VALID,25.5132,VALID,82,VALID,0,
2017-01-13, 20:18:04,VALID,916.206,VALID,0,VALID,63.9681,VALID,656.788,VALID,25.728,VALID,35,VALID,0.644531,
2017-01-13, 20:19:04,VALID,916.197,VALID,0,VALID,63.2439,VALID,437.608,VALID,25.728,VALID,47,VALID,1.24648,
2017-01-13, 20:20:04,VALID,916.19,VALID,0,VALID,59.2263,VALID,863.827,VALID,25.4527,VALID,256,VALID,1.69648,
2017-01-13, 20:21:04,VALID,916.15,VALID,0,VALID,63.6479,VALID,860.174,VALID,25.0817,VALID,5,VALID,1.69336,
2017-01-13, 20:22:04,VALID,916.136,VALID,0,VALID,64.7152,VALID,833.421,VALID,25.0602,VALID,4,VALID,2.42227,
2017-01-13, 20:23:04,VALID,916.135,VALID,0,VALID,64.7076,VALID,816.445,VALID,25.1402,VALID,20,VALID,1.68555,
2017-01-13, 20:24:04,VALID,916.109,VALID,0,VALID,63.7546,VALID,816.123,VALID,25.4331,VALID,28,VALID,1.03906,
2017-01-13, 20:25:04,VALID,916.053,VALID,0,VALID,61.7802,VALID,848.355,VALID,25.7632,VALID,33,VALID,0.769922,
2017-01-13, 20:26:04,VALID,916.056,VALID,0,VALID,60.286,VALID,846.959,VALID,26.0776,VALID,43,VALID,0.696875,
2017-01-13, 20:27:04,VALID,916.033,VALID,0,VALID,64.3797,VALID,739.84,VALID,26.2144,VALID,9,VALID,0.316406,
2017-01-13, 20:28:04,VALID,916.033,VALID,0,VALID,62.4586,VALID,605.646,VALID,26.3726,VALID,24,VALID,0.571094,
2017-01-13, 20:29:04,VALID,916.025,VALID,0,VALID,62.1613,VALID,538.817,VALID,26.5094,VALID,13,VALID,0.216797,
2017-01-13, 20:30:04,VALID,916.063,VALID,0,VALID,59.9048,VALID,690.524,VALID,26.6461,VALID,357,VALID,1.44609,
2017-01-13, 20:31:04,VALID,916.004,VALID,0,VALID,56.0397,VALID,812.148,VALID,26.4312,VALID,6,VALID,1.76289,
2017-01-13, 20:32:04,VALID,915.985,VALID,0,VALID,60.8806,VALID,719.533,VALID,0,0,0,0,0,
